Weather History for Farmington, NM

Change the Weather History Date:

Thursday, February 21, 2013

  Actual Average Record
Temperature  
Mean Temperature 35 °F -  
Max Temperature 44 °F 47 °F 65 °F (1981)
Min Temperature 26 °F 24 °F 11 °F (1987)
Degree Days  
Heating Degree Days 30    
Moisture  
Dew Point 23 °F    
Average Humidity 70    
Maximum Humidity 93    
Minimum Humidity 31    
Precipitation  
Precipitation 0.00 in - - ()
Sea Level Pressure  
Sea Level Pressure 29.79 in    
Wind  
Wind Speed 6 mph (West)    
Max Wind Speed 20 mph    
Max Gust Speed 29 mph    
Visibility 10 miles    
Events Rain    
Averages and records for this station are not official NWS values.
T = Trace of Precipitation, MM = Missing Value Source: NWS Daily Summary

Daily Weather History Graph

Daily Weather History Graph

Search for Another Location

Airport:

Trip Planner

Search our weather history database for the weather conditions in past years. The results will help you decide how hot, cold, wet, or windy it might be!

Date:

Astronomy

Feb. 21, 2013 Rise Set
Actual Time 6:53 AM MST 5:59 PM MST
Civil Twilight 6:27 AM MST 6:26 PM MST
Nautical Twilight 5:57 AM MST 6:56 PM MST
Astronomical Twilight 5:27 AM MST 7:26 PM MST
Moon 2:21 PM MST (2/21) 3:56 AM MST (2/21)
Length of Visible Light 11h 58m
Length of Day
11h 06m
Waxing Gibbous, 84% of the Moon is Illuminated
Feb 21
Waxing Gibbous
Feb 25
Full
Mar 4
Last Quarter
Mar 11
New
Mar 19
First Quarter

Hourly Weather History & Observations

Time (MST) Temp. Windchill Dew Point Humidity Pressure Visibility Wind Dir Wind Speed Gust Speed Precip Events Conditions
12:53 AM 21.9 °F - 19.0 °F 89% 29.69 in 10.0 mi Calm Calm - N/A   Scattered Clouds
1:53 AM 23.0 °F - 19.9 °F 88% 29.69 in 10.0 mi Calm Calm - N/A   Mostly Cloudy
2:05 AM 23.0 °F - 21.2 °F 93% 29.64 in 10.0 mi Calm Calm - N/A   Overcast
2:53 AM 23.0 °F 18.4 °F 19.0 °F 85% 29.68 in 9.0 mi WNW 3.5 mph - 0.00 in   Overcast
3:53 AM 21.9 °F 17.2 °F 19.0 °F 89% 29.68 in 10.0 mi NNW 3.5 mph - N/A   Mostly Cloudy
4:53 AM 21.9 °F - 19.0 °F 89% 29.71 in 10.0 mi Calm Calm - N/A   Overcast
5:53 AM 26.1 °F 15.6 °F 23.0 °F 88% 29.73 in 10.0 mi WSW 11.5 mph - N/A   Overcast
6:53 AM 27.0 °F 16.7 °F 24.1 °F 89% 29.75 in 10.0 mi West 11.5 mph - N/A   Scattered Clouds
7:01 AM 26.6 °F 16.2 °F 24.8 °F 93% 29.70 in 10.0 mi WSW 11.5 mph - N/A   Mostly Cloudy
7:53 AM 28.9 °F 19.8 °F 26.1 °F 89% 29.77 in 10.0 mi West 10.4 mph - N/A   Overcast
8:53 AM 30.9 °F 23.5 °F 26.1 °F 82% 29.81 in 10.0 mi West 8.1 mph - N/A   Overcast
9:19 AM 33.8 °F 25.8 °F 26.6 °F 75% 29.77 in 10.0 mi West 10.4 mph - N/A   Scattered Clouds
9:53 AM 36.0 °F 28.0 °F 28.0 °F 73% 29.82 in 10.0 mi West 11.5 mph - N/A   Scattered Clouds
10:28 AM 35.6 °F 26.6 °F 26.6 °F 70% 29.78 in 10.0 mi West 13.8 mph 19.6 mph N/A   Mostly Cloudy
10:53 AM 35.1 °F 25.5 °F 27.0 °F 72% 29.84 in 10.0 mi West 15.0 mph - N/A   Mostly Cloudy
11:12 AM 35.6 °F 26.2 °F 26.6 °F 70% 29.78 in 10.0 mi WNW 15.0 mph - N/A   Mostly Cloudy
11:53 AM 37.9 °F 28.9 °F 28.0 °F 68% 29.83 in 10.0 mi WNW 16.1 mph 28.8 mph 0.00 in Rain Light Rain
12:53 PM 42.1 °F 34.2 °F 25.0 °F 51% 29.80 in 10.0 mi NW 16.1 mph 23.0 mph 0.00 in   Mostly Cloudy
1:53 PM 41.0 °F 32.5 °F 24.1 °F 51% 29.79 in 10.0 mi WNW 17.3 mph 21.9 mph N/A   Scattered Clouds
2:53 PM 41.0 °F 31.9 °F 23.0 °F 49% 29.79 in 10.0 mi West 19.6 mph 25.3 mph N/A   Scattered Clouds
3:53 PM 44.1 °F 37.7 °F 23.0 °F 43% 29.78 in 10.0 mi West 12.7 mph 19.6 mph N/A   Mostly Cloudy
4:53 PM 41.0 °F 33.5 °F 21.0 °F 45% 29.79 in 10.0 mi WNW 13.8 mph - N/A   Partly Cloudy
5:53 PM 37.9 °F 30.9 °F 19.9 °F 48% 29.82 in 10.0 mi West 10.4 mph - N/A   Mostly Cloudy
6:53 PM 34.0 °F 29.8 °F 21.0 °F 59% 29.85 in 10.0 mi NNW 4.6 mph - N/A   Clear
7:53 PM 33.1 °F 26.9 °F 21.0 °F 61% 29.87 in 10.0 mi SW 6.9 mph - N/A   Partly Cloudy
8:53 PM 32.0 °F 26.4 °F 23.0 °F 69% 29.89 in 10.0 mi WSW 5.8 mph - N/A   Clear
9:53 PM 30.0 °F 25.2 °F 21.9 °F 72% 29.90 in 10.0 mi West 4.6 mph - N/A   Mostly Cloudy
10:53 PM 30.9 °F 26.2 °F 23.0 °F 72% 29.90 in 10.0 mi West 4.6 mph - N/A   Overcast
11:53 PM 28.9 °F - 21.9 °F 75% 29.90 in 10.0 mi Calm Calm - N/A   Partly Cloudy